ARIANE 5 DEB [SYLDA] (44803 NORAD) Tracking and Keplerian Element Data

This shows tracking and keplerian element data for the satellite.

Feedback or suggestion? Click here.




ElementValue
Catalog44803
NameARIANE 5 DEB [SYLDA]
Epoch Orbit62
Epoch Day358.16073829
Epoch Year2019
RAAN202.5478
Inclination4.9407
Eccentricity0.7272407
Argument of Perigee200.7705
Mean Anonmoly98.4556
Mean Motion2.28636495
Decay Rate6.4E-05
L11 44803U 19080D 19358.16073829 .00006400 00000-0 22097-2 0 9991
L22 44803 4.9407 202.5478 7272407 200.7705 98.4556 2.28636495 623

Live tracking and technical data element details for ARIANE 5 DEB [SYLDA] (NORAD 44803). ARIANE 5 DEB [SYLDA] can be tracked NOW for your location showing map with azimuth and elevation plus other details from your city location.

Track the satellite on the map from your city or location and see movement details for azimuth, elevation, latitude, longitude, range, height, and movement on the map or in text.







IsCatalogInMostPopularTable: catalog: 44803, numindb: 7
Update: records affected: 1



GetName: 44803 ARIANE 5 DEB [SYLDA]

Hit Count: updated at: Fri, 24 Jan 2020 12:05:56 GMT